Regional Weather Roundup
Issued by NWS

Home | Current Version | Previous Version | Graphics & Text | Print | Product List | Glossary On
Versions: 1 2 3 4 5 6 7 8 9 10 11 12 13 14 15 16 17 18 19 20 21 22 23 24 25 26 27 28 29 30 31 32 33 34 35 36 37 38 39 40 41 42 43 44 45 46 47 48 49 50
000
ASUS43 KDTX 060001
RWRMI
MICHIGAN HOURLY REGIONAL WEATHER ROUNDUP
NATIONAL WEATHER SERVICE DETROIT/PONTIAC MI
700 PM EST FRI FEB 05 2016

NOTE: "FAIR" INDICATES FEW OR NO CLOUDS BELOW 12,000 FEET WITH NO
SIGNIFICANT WEATHER AND/OR OBSTRUCTION TO VISIBILITY.

MIZ047>049-052>055-059>063-066>070-074>076-081>083-060100-
SOUTHEAST LOWER MICHIGAN

CITY           SKY/WX    TMP DP  RH WIND       PRES   REMARKS
ADRIAN         CLOUDY    39  25  57 W8        30.31S WCI  33
6HR MIN TEMP:  38; 6HR MAX TEMP:  44;

ALMA           CLOUDY    31  29  94 CALM      30.30R
ANN ARBOR      FLURRIES  34  26  72 W15       30.30R WCI  24
BAD AXE        FLURRIES  31  29  92 CALM      30.29S
CARO           LGT SNOW  32  30  91 CALM      30.28S
DETROIT CITY   CLOUDY    35  22  58 S6        30.31R WCI  30
6HR MIN TEMP:  35; 6HR MAX TEMP:  38;

DETROIT        CLOUDY    36  23  59 S7        30.31S WCI  30
6HR MIN TEMP:  36; 6HR MAX TEMP:  40;

FLINT          FLURRIES  34  27  75 W6        30.30R WCI  29
6HR MIN TEMP:  34; 6HR MAX TEMP:  39; 6HR PCP: TRACE;

GROSSE ILE     CLOUDY    37  25  60 S6        30.30S WCI  33
HILLSDALE      CLOUDY    30  24  79 SW5       30.29S WCI  25
6HR MIN TEMP:  30; 6HR MAX TEMP:  36;

HOWELL         FLURRIES  32  28  85 W7        30.29R WCI  26
6HR MIN TEMP:  32; 6HR MAX TEMP:  39;


CITY           SKY/WX    TMP DP  RH WIND       PRES   REMARKS
JACKSON        CLOUDY    31  24  75 SW5       30.30R WCI  26
6HR MIN TEMP:  30; 6HR MAX TEMP:  38; 6HR PCP: TRACE;

LAMBERTVILLE   CLOUDY    35  24  63 W5        30.32R WCI  31
6HR MIN TEMP:  35; 6HR MAX TEMP:  39;

LANSING        CLOUDY    30  27  88 W5        30.31R WCI  25
6HR MIN TEMP:  30; 6HR MAX TEMP:  35; 6HR PCP:  0.01;

LAPEER         CLOUDY    34  25  69 W3        30.28S
6HR MIN TEMP:  34; 6HR MAX TEMP:  35;

MASON          FLURRIES  30  28  90 W5        30.30R WCI  25
MONROE         CLOUDY    37  23  57 SW9       30.31R WCI  30
6HR MIN TEMP:  37; 6HR MAX TEMP:  39;

MT. CLEMENS    MOCLDY    34  27  75 S12       30.29R WCI  25
6HR MIN TEMP:  34; 6HR MAX TEMP:  36;

PONTIAC        LGT SNOW  33  26  75 W8        30.28R WCI  26
6HR MIN TEMP:  33; 6HR MAX TEMP:  37; 6HR PCP: TRACE;

PORT HOPE        N/A     30  27  88 CALM      30.27S
6HR MIN TEMP:  29; 6HR MAX TEMP:  31;

PORT HURON     CLOUDY    32  25  74 S6        30.30S WCI  26
TRI CITIES     CLOUDY    31  27  85 SW7       30.30R FOG     WCI  24
6HR MIN TEMP:  31; 6HR MAX TEMP:  33; 6HR PCP:  0.01;

MIDLAND        CLOUDY    31  27  84 CALM      30.29R
6HR MIN TEMP:  31; 6HR MAX TEMP:  33;

TROY           CLOUDY    38  22  53 SW9       30.30S WCI  31
SAGINAW HB     LGT SNOW  32  30  93 CALM      30.30R
$$
MIZ043>046-050>051-056>058-064>065-071>073-077>080-060100-
SOUTHWEST LOWER MICHIGAN

CITY           SKY/WX    TMP DP  RH WIND       PRES   REMARKS
BATTLE CREEK   CLOUDY    30  25  81 NW9       30.32R WCI  22
6HR MIN TEMP:  30; 6HR MAX TEMP:  34; 6HR PCP:  0.01;

BENTON HARBOR  MOCLDY    30  21  69 VRB5      30.36R WCI  25
6HR MIN TEMP:  30; 6HR MAX TEMP:  33; 6HR PCP:  0.01;

BIG RAPIDS     CLOUDY    27  17  67 W8        30.28R WCI  18
6HR MIN TEMP:  27; 6HR MAX TEMP:  31;

COLDWATER      FLURRIES  31  28  90 W7        30.31S WCI  24
6HR MIN TEMP:  31; 6HR MAX TEMP:  36;

FREMONT        MOCLDY    25  16  68 W8        30.32R WCI  16
HOLLAND        CLOUDY    28  20  71 W3        30.35R
6HR MIN TEMP:  28; 6HR MAX TEMP:  32; 6HR PCP: TRACE;

GRAND RAPIDS   MOCLDY    28  19  69 W8        30.32R WCI  20
6HR MIN TEMP:  27; 6HR MAX TEMP:  32; 6HR PCP:  0.01;

IONIA          CLOUDY    29  26  87 SW8       30.29S WCI  21
6HR MIN TEMP:  29; 6HR MAX TEMP:  32;

KALAMAZOO      CLOUDY    30  23  75 W7        30.33R WCI  23
6HR MIN TEMP:  30; 6HR MAX TEMP:  35; 6HR PCP:  0.01;

LUDINGTON      CLOUDY    26  17  66 W3        30.33R
6HR MIN TEMP:  26; 6HR MAX TEMP:  30; 6HR PCP:  0.01;

MARSHALL       LGT SNOW  31  28  91 W5        30.30S WCI  26
6HR MIN TEMP:  31; 6HR MAX TEMP:  35;

MOUNT PLEASANT CLOUDY    32  22  68 NW6       30.28S WCI  26
6HR MIN TEMP:  32; 6HR MAX TEMP:  33;

MUSKEGON       CLOUDY    27  16  63 NW8       30.34R WCI  19
6HR MIN TEMP:  27; 6HR MAX TEMP:  33;

SOUTH HAVEN    CLOUDY    30  22  73 CALM      30.35S
$$
MIZ016>042-060100-
NORTHERN LOWER MICHIGAN

CITY           SKY/WX    TMP DP  RH WIND       PRES   REMARKS
ALPENA         CLEAR     21  18  88 CALM      30.27S
6HR MIN TEMP:  21; 6HR MAX TEMP:  29; 6HR PCP: TRACE;

BEAVER ISLAND  CLOUDY    27  16  64 W8        30.27S WCI  18
6HR MIN TEMP:  26; 6HR MAX TEMP:  29;

BELLAIRE       PTCLDY    25  18  73 CALM      30.29S
6HR MIN TEMP:  24; 6HR MAX TEMP:  31;

CADILLAC       CLOUDY    22  17  81 W3        30.25R
CHARLEVOIX     CLOUDY    27  17  65 SW7       30.30S WCI  20
FRANKFORT      MOCLDY    26  17  67 CALM      30.31R
GAYLORD        MOCLDY    22  15  75 W3        30.24R
6HR MIN TEMP:  18; 6HR MAX TEMP:  27; 6HR PCP: TRACE;

GRAYLING       CLEAR     20  17  88 W3        30.26S
6HR MIN TEMP:  19; 6HR MAX TEMP:  29;

HARBOR SPRINGS MOCLDY    27  16  63 W5        30.26S WCI  21
HOUGHTON LAKE  CLOUDY    23  19  85 W3        30.26R
6HR MIN TEMP:  23; 6HR MAX TEMP:  28; 6HR PCP: TRACE;

MANISTEE       CLOUDY    27  16  63 W6        30.32R WCI  20
OSCODA         CLOUDY    30  24  78 CALM      30.27S
6HR MIN TEMP:  29; 6HR MAX TEMP:  32;

PELLSTON       CLEAR     16  11  80 CALM      30.27S
6HR MIN TEMP:  16; 6HR MAX TEMP:  28;

ROGERS CITY    CLEAR     20  13  75 SW3       30.27F
TRAVERSE CITY  CLOUDY    25  16  68 W6        30.29R WCI  18
6HR MIN TEMP:  24; 6HR MAX TEMP:  30; 6HR PCP: TRACE;

$$
MIZ007>008-015-060100-
EASTERN UPPER MICHIGAN

CITY           SKY/WX    TMP DP  RH WIND       PRES   REMARKS
KINROSS        CLOUDY    23  19  86 CALM      30.24S
6HR MIN TEMP:  23; 6HR MAX TEMP:  28;

MACKINAC ISLAN PTCLDY    24  19  83 W6        30.25S WCI  17
6HR MIN TEMP:  24; 6HR MAX TEMP:  28;

NEWBERRY       MOCLDY    22  14  72 CALM      30.23F
6HR MIN TEMP:  18; 6HR MAX TEMP:  27;

S. S. MARIE    CLOUDY    24  11  57 W3        30.23S
6HR MIN TEMP:  23; 6HR MAX TEMP:  29; 6HR PCP:  0.01;

$$
MIZ004>006-011>014-085-060100-
CENTRAL UPPER MICHIGAN

CITY           SKY/WX    TMP DP  RH WIND       PRES   REMARKS
MANISTIQUE     MOCLDY    24  16  73 CALM      30.25F
6HR MIN TEMP:  24; 6HR MAX TEMP:  30;

ESCANABA       MOCLDY    25  16  68 SW7       30.26S WCI  17
6HR MIN TEMP:  25; 6HR MAX TEMP:  28; 6HR PCP:  0.01;

MENOMINEE      CLEAR     21  12  68 SW6       30.27S WCI  14
6HR MIN TEMP:  21; 6HR MAX TEMP:  27;

SAWYER-GWINN   CLOUDY    21  12  68 S3        30.19S
$$
MIZ001>003-009>011-084-060100-
WESTERN UPPER MICHIGAN

CITY           SKY/WX    TMP DP  RH WIND       PRES   REMARKS
IRON MOUNTAIN  CLOUDY    25   9  50 S5        30.20S WCI  19
6HR MIN TEMP:  23; 6HR MAX TEMP:  27;

HOUGHTON       CLOUDY    22  12  65 S7        30.13F WCI  13
6HR MIN TEMP:  21; 6HR MAX TEMP:  23;

COPPER HARBOR    N/A     23  12  62 SW5       30.16F WCI  17
6HR MIN TEMP:  22; 6HR MAX TEMP:  26;

IRONWOOD       CLOUDY    27  10  50 S9        30.11F WCI  17
6HR MIN TEMP:  19; 6HR MAX TEMP:  27;

$$

ABBREVIATIONS USED IN REMARKS
   TC - TEMPERATURE IN CELSIUS
  WCI - WIND CHILL INDEX
   HX - HEAT INDEX
  VSB - VISIBILITY




USA.gov is the U.S. government's official web portal to all federal, state and local government web resources and services.